Location: Devore Heights
(34.2372°N, 117.4156°W)
Time: 18:54:03
(UTC+00:00)

S-56A Canister/Altair - Pass Details

Date: 22 September 2024
Orbit: 636 x 2487 km, 38.9° (Epoch: 14 October)

Event Time Altitude Azimuth Distance (km) Brightness Sun altitude
Rises 23:20:49 0° 239° (WSW) 2,977 11.8 28.4°
Reaches altitude 10° 23:23:09 10° 237° (WSW) 2,018 11.3 28.0°
Maximum altitude 23:27:32 67° 154° (SSE) 702 7.7 27.1°
Drops below altitude 10° 23:32:24 10° 72° (ENE) 2,228 9.4 26.2°
Sets 23:35:05 0° 70° (ENE) 3,320 10.2 25.7°
